#timestamp,LO_Frequency,Hit,StdDev 
1536148815.4,286046905.6,N
1536148835.3,286046900.6,N
1536148855.1,286046901.5,N
1536148856.0,286046901.5,N
1536148875.8,286046903.4,N
1536148895.7,286046897.0,Y
1536148915.5,286046954.8,P
1536148935.4,286046947.2,P
1536148955.2,286046945.6,P
1536148975.0,286046941.5,Y
1536148975.9,286046941.5,P
1536148995.8,286046989.8,P
1536149015.6,286046987.1,N
1536149035.4,286046987.2,N
1536149055.3,286046987.9,N
1536149075.1,286046982.4,N
1536149095.9,286046977.2,N
1536149115.7,286046973.2,N
1536149135.5,286046969.3,N
1536149155.4,286046969.9,N
1536149175.2,286046966.3,N
1536149195.0,286046960.2,N
1536149195.9,286046960.2,N
1536149215.8,286046960.9,N
1536149235.6,286046955.4,Y
1536149255.4,286046981.4,P
1536149275.3,286046975.7,P
1536149295.1,286046975.0,P
1536149315.9,286046970.9,Y
1536149335.7,286046995.8,P
1536149355.5,286046992.2,N
1536149375.4,286046991.1,N
1536149395.2,286046986.5,N
1536149415.0,286046982.9,N
1536149416.0,286046982.9,N
1536149435.8,286046983.2,N
1536149455.6,286046981.2,Y
1536149475.5,286046990.5,P
1536149495.3,286046987.5,P
1536149515.1,286046986.7,P
1536149535.9,286046985.1,Y
1536149555.7,286046992.0,P
1536149575.6,286046992.7,P
1536149595.4,286046988.9,P
1536149615.2,286046986.4,Y
1536149635.1,286046993.7,P
1536149636.0,286046993.7,P
1536149655.8,286046991.3,P
1536149675.6,286046992.8,Y
1536149695.5,286046997.3,P
1536149715.3,286046993.8,N
1536149735.2,286046994.1,N
1536149755.9,286046994.4,Y
1536149775.7,286046997.2,P
1536149795.6,286046995.4,P
1536149815.4,286046992.4,P
1536149835.2,286046993.0,Y
1536149855.1,286046995.1,P
1536149856.0,286046995.1,P
1536149875.8,286046994.5,P
1536149895.7,286046994.1,Y
1536149915.5,286046995.7,P
1536149935.3,286046997.1,P
1536149955.2,286046995.9,P
1536149975.0,286046993.6,Y
1536149975.9,286046993.6,P
1536149995.8,286046998.6,N
1536150015.6,286046999.3,N
1536150035.4,286047000.2,N
1536150055.3,286046998.6,N
1536150075.1,286046996.9,N
1536150095.8,286046993.3,Y
1536150115.7,286046998.3,P
1536150135.5,286046995.4,P
1536150155.4,286046991.9,P
1536150175.2,286046990.2,Y
1536150195.0,286046999.2,P
1536150195.9,286046999.2,N
1536150215.8,286046999.1,N
1536150235.6,286046996.2,N
1536150255.4,286046993.8,Y
1536150275.3,286046995.2,P
1536150295.1,286046991.7,P
1536150315.9,286046992.7,N
1536150335.7,286046988.9,Y
1536150355.5,286046996.9,P
1536150375.4,286046994.6,P
1536150395.2,286046988.7,P
1536150415.0,286046986.2,Y
1536150416.0,286046986.2,P
1536150435.8,286046991.1,N
1536150455.6,286046988.1,P
1536150475.5,286046980.8,Y
1536150495.3,286046989.7,P
1536150515.1,286046991.5,P
1536150535.9,286046991.5,P
1536150555.7,286046988.9,Y
1536150575.6,286046997.1,P
1536150595.4,286046992.7,N
1536150615.2,286046991.3,P
1536150635.1,286046989.4,Y
1536150636.0,286046989.4,P
1536150655.8,286046997.5,N
1536150675.6,286046998.0,N
1536150695.5,286046991.7,N
1536150715.3,286046992.8,N
1536150735.2,286046990.0,Y
1536150755.9,286046992.7,P
1536150775.7,286046990.8,P
1536150795.6,286046987.9,P
1536150815.4,286046990.0,Y
1536150835.3,286046998.0,P
1536150855.1,286046994.8,N
1536150856.0,286046994.8,N
1536150875.8,286046991.3,Y
1536150895.7,286046993.9,P
1536150915.5,286046995.9,P
1536150935.3,286046997.3,P
1536150955.2,286046995.7,Y
1536150975.0,286046997.4,P
1536150975.9,286046997.4,N
1536150995.8,286046993.7,P
1536151015.6,286046992.4,Y
1536151035.4,286046999.1,P
1536151055.3,286046996.9,N
1536151075.1,286046998.5,N
1536151095.9,286046995.5,Y
1536151115.7,286046993.5,P
1536151135.5,286046991.3,P
1536151155.4,286046991.6,P
1536151175.2,286046989.5,Y
1536151195.0,286046995.0,P
1536151195.9,286046995.0,P
1536151215.8,286046993.4,P
1536151235.6,286046993.8,Y
1536151255.5,286046999.7,P
1536151275.3,286047001.4,N
1536151295.1,286047000.9,N
1536151315.9,286046995.7,N
1536151335.7,286046995.9,N
1536151355.5,286046996.4,N
1536151375.4,286047001.0,N
1536151395.2,286047000.9,N
1536151415.0,286047001.4,N
1536151416.0,286047001.4,N
1536151435.8,286047007.1,N
1536151455.6,286047013.5,Y
1536151475.5,286047018.0,P
1536151495.3,286047018.8,N
1536151515.1,286047018.4,N
1536151535.9,286047021.9,N
1536151555.7,286047020.8,N
1536151575.5,286047019.7,N
1536151595.4,286047018.8,N
1536151615.2,286047018.6,N
1536151635.1,286047018.0,N
1536151636.0,286047018.0,Y
1536151655.8,286047004.0,P
1536151675.6,286047004.7,N
1536151695.5,286047010.1,N
1536151715.3,286047013.4,N
1536151735.2,286047019.9,Y
1536151755.9,286047012.9,P
1536151775.7,286047019.8,P
1536151795.6,286047028.0,P
1536151815.4,286047034.1,Y
1536151835.2,286047025.5,P
1536151855.1,286047036.1,P
1536151856.0,286047036.1,P
1536151875.8,286047045.7,Y
1536151895.7,286047023.6,P
1536151915.5,286047029.2,P
1536151935.3,286047035.2,P
1536151955.2,286047041.9,Y
1536151975.0,286047020.0,P
1536151975.9,286047020.0,P
1536151995.8,286047024.9,P
1536152015.6,286047030.5,Y
1536152035.4,286047012.0,P
1536152055.3,286047011.4,N
1536152075.1,286047018.0,P
1536152095.9,286047021.7,Y
1536152115.7,286047007.9,P
1536152135.5,286047011.0,N
1536152155.4,286047018.8,P
1536152175.2,286047023.6,Y
1536152195.1,286047007.8,P
1536152196.0,286047007.8,N
1536152215.8,286047013.5,P
1536152235.6,286047015.0,Y
1536152255.5,286047010.1,P
1536152275.3,286047011.0,P
1536152295.2,286047014.6,P
1536152315.9,286047019.9,Y
1536152335.7,286047009.6,P
1536152355.6,286047013.3,P
1536152375.4,286047016.1,P
1536152395.3,286047018.1,Y
